IBE07NL EGLL-LEMD

Flight info

Callsign IBE07NL
Flight time 1h 49m
Altitude 31000
Route GASGU N866 SAM M195 MARUK/N0448F330 N621 LELNA DCT NOVAN DCT DELOG N864 NONTU
Aircraft A320/M-SDE3FGHIRWY/LB1

Departure

Time 2026-05-06 08:26
Airport London Heathrow Airport (EGLL)

Arrival

Time 2026-05-06 10:15
Airport Adolfo Suárez Madrid–Barajas Airport (LEMD)
Time Latitude Longitude Altitude Speed Heading
2026-05-06 08:03 51.47087 -0.48584 86 ft 0 kts 269°
2026-05-06 08:15 51.47087 -0.48583 86 ft 0 kts 269°
2026-05-06 08:17 51.47087 -0.48552 86 ft 4 kts 267°
2026-05-06 08:17 51.47090 -0.48510 87 ft 4 kts 254°
2026-05-06 08:17 51.47101 -0.48476 87 ft 4 kts 201°
2026-05-06 08:18 51.47108 -0.48473 89 ft 1 kts 180°
2026-05-06 08:20 51.47105 -0.48473 87 ft 2 kts 180°
2026-05-06 08:20 51.47074 -0.48472 87 ft 7 kts 180°
2026-05-06 08:20 51.47026 -0.48472 87 ft 6 kts 179°
2026-05-06 08:21 51.46986 -0.48471 89 ft 5 kts 179°
2026-05-06 08:21 51.46954 -0.48470 88 ft 4 kts 179°
2026-05-06 08:21 51.46931 -0.48469 86 ft 3 kts 179°
2026-05-06 08:21 51.46911 -0.48468 90 ft 4 kts 179°
2026-05-06 08:22 51.46872 -0.48470 86 ft 7 kts 181°
2026-05-06 08:22 51.46829 -0.48468 86 ft 6 kts 178°
2026-05-06 08:22 51.46795 -0.48466 86 ft 4 kts 178°
2026-05-06 08:22 51.46769 -0.48465 86 ft 4 kts 179°
2026-05-06 08:23 51.46732 -0.48468 86 ft 7 kts 181°
2026-05-06 08:23 51.46675 -0.48467 86 ft 9 kts 179°
2026-05-06 08:23 51.46607 -0.48465 86 ft 10 kts 179°
2026-05-06 08:23 51.46542 -0.48465 86 ft 9 kts 180°
2026-05-06 08:24 51.46481 -0.48428 91 ft 10 kts 117°
2026-05-06 08:24 51.46478 -0.48358 90 ft 4 kts 88°
2026-05-06 08:24 51.46478 -0.48327 87 ft 1 kts 89°
2026-05-06 08:24 51.46478 -0.48324 88 ft 0 kts 89°
2026-05-06 08:25 51.46481 -0.47944 87 ft 72 kts 89°
2026-05-06 08:25 51.46484 -0.46795 89 ft 131 kts 90°
2026-05-06 08:26 51.46497 -0.45073 198 ft 168 kts 85°
2026-05-06 08:26 51.46520 -0.43275 975 ft 160 kts 86°
2026-05-06 08:26 51.46413 -0.41461 1574 ft 176 kts 108°
2026-05-06 08:26 51.45724 -0.39673 1956 ft 201 kts 121°
2026-05-06 08:27 51.44879 -0.37747 2291 ft 220 kts 122°
2026-05-06 08:27 51.43944 -0.35637 2707 ft 245 kts 123°
2026-05-06 08:27 51.42638 -0.33714 3345 ft 267 kts 148°
2026-05-06 08:27 51.40838 -0.32786 4116 ft 279 kts 175°
2026-05-06 08:28 51.38912 -0.33196 4957 ft 283 kts 204°
2026-05-06 08:28 51.37261 -0.34868 5702 ft 283 kts 224°
2026-05-06 08:28 51.35798 -0.36951 5936 ft 280 kts 226°
2026-05-06 08:28 51.34363 -0.39053 6012 ft 279 kts 226°
2026-05-06 08:29 51.32955 -0.41127 6007 ft 278 kts 226°
2026-05-06 08:29 51.31528 -0.43286 6529 ft 278 kts 231°
2026-05-06 08:29 51.30447 -0.45756 7438 ft 275 kts 246°
2026-05-06 08:29 51.29788 -0.48622 8282 ft 276 kts 257°
2026-05-06 08:30 51.29265 -0.51605 9117 ft 281 kts 257°
2026-05-06 08:30 51.28726 -0.54638 9983 ft 287 kts 256°
2026-05-06 08:30 51.28161 -0.57787 10461 ft 306 kts 256°
2026-05-06 08:30 51.27526 -0.61170 10740 ft 330 kts 255°
2026-05-06 08:31 51.26826 -0.64771 11083 ft 347 kts 254°
2026-05-06 08:31 51.26093 -0.68465 11714 ft 353 kts 254°
2026-05-06 08:31 51.25346 -0.72216 12461 ft 356 kts 253°
2026-05-06 08:31 51.24597 -0.75986 13244 ft 358 kts 254°
2026-05-06 08:32 51.23846 -0.79793 13952 ft 361 kts 254°
2026-05-06 08:32 51.23092 -0.83635 14582 ft 364 kts 253°
2026-05-06 08:32 51.22332 -0.87509 14909 ft 366 kts 253°
2026-05-06 08:32 51.21566 -0.91379 14990 ft 365 kts 252°
2026-05-06 08:33 51.20523 -0.95065 14997 ft 366 kts 242°
2026-05-06 08:33 51.19050 -0.98380 15002 ft 369 kts 230°
2026-05-06 08:33 51.17229 -1.01278 15002 ft 370 kts 225°
2026-05-06 08:33 51.15373 -1.04113 15002 ft 370 kts 225°
2026-05-06 08:34 51.13517 -1.06968 15001 ft 370 kts 225°
2026-05-06 08:34 51.09807 -1.12691 15462 ft 374 kts 226°
2026-05-06 08:34 51.07932 -1.15578 16156 ft 376 kts 225°
2026-05-06 08:35 51.06072 -1.18433 16793 ft 378 kts 225°
2026-05-06 08:35 51.04171 -1.21347 17413 ft 381 kts 225°
2026-05-06 08:35 51.02260 -1.24268 18054 ft 383 kts 225°
2026-05-06 08:35 51.00331 -1.27210 18587 ft 386 kts 225°
2026-05-06 08:36 50.98385 -1.30165 19085 ft 389 kts 226°
2026-05-06 08:36 50.96421 -1.33139 19603 ft 391 kts 225°
2026-05-06 08:36 50.94273 -1.35827 20099 ft 396 kts 216°
2026-05-06 08:36 50.91965 -1.38233 20590 ft 399 kts 214°
2026-05-06 08:37 50.89639 -1.40655 21107 ft 401 kts 215°
2026-05-06 08:37 50.87296 -1.43092 21585 ft 403 kts 215°
2026-05-06 08:37 50.84945 -1.45532 22042 ft 407 kts 215°
2026-05-06 08:37 50.82573 -1.47993 22507 ft 409 kts 215°
2026-05-06 08:38 50.80186 -1.50468 22973 ft 412 kts 214°
2026-05-06 08:38 50.77783 -1.52959 23420 ft 415 kts 214°
2026-05-06 08:38 50.75365 -1.55464 23831 ft 417 kts 215°
2026-05-06 08:38 50.72932 -1.57979 24204 ft 419 kts 215°
2026-05-06 08:39 50.70482 -1.60501 24551 ft 422 kts 215°
2026-05-06 08:39 50.68017 -1.63037 24913 ft 424 kts 215°
2026-05-06 08:39 50.65547 -1.65579 25271 ft 426 kts 214°
2026-05-06 08:39 50.63061 -1.68139 25598 ft 428 kts 214°
2026-05-06 08:40 50.60558 -1.70714 25898 ft 431 kts 215°
2026-05-06 08:40 50.58037 -1.73303 26238 ft 434 kts 214°
2026-05-06 08:40 50.55500 -1.75897 26561 ft 436 kts 214°
2026-05-06 08:40 50.52985 -1.78465 26893 ft 438 kts 214°
2026-05-06 08:41 50.50423 -1.81082 27211 ft 440 kts 214°
2026-05-06 08:41 50.47848 -1.83712 27531 ft 443 kts 214°
2026-05-06 08:41 50.45259 -1.86349 27845 ft 444 kts 214°
2026-05-06 08:41 50.42663 -1.88986 28180 ft 445 kts 214°
2026-05-06 08:42 50.40056 -1.91630 28483 ft 447 kts 215°
2026-05-06 08:42 50.37427 -1.94292 28713 ft 451 kts 214°
2026-05-06 08:42 50.34791 -1.96956 28969 ft 453 kts 214°
2026-05-06 08:42 50.32136 -1.99635 29247 ft 455 kts 215°
2026-05-06 08:43 50.29472 -2.02323 29577 ft 455 kts 215°
2026-05-06 08:43 50.26734 -2.04812 29988 ft 456 kts 207°
2026-05-06 08:43 50.23781 -2.06634 30319 ft 457 kts 199°
2026-05-06 08:43 50.20671 -2.07711 30618 ft 459 kts 190°
2026-05-06 08:44 50.17490 -2.08167 30917 ft 460 kts 186°
2026-05-06 08:44 50.11110 -2.08977 31000 ft 460 kts 186°
2026-05-06 08:45 50.04781 -2.09799 30997 ft 458 kts 185°
2026-05-06 08:45 49.98436 -2.10780 30996 ft 458 kts 192°
2026-05-06 08:46 49.92283 -2.13460 31392 ft 459 kts 198°
2026-05-06 08:46 49.89272 -2.14874 31675 ft 460 kts 197°
2026-05-06 08:46 49.86161 -2.16323 32009 ft 460 kts 198°
2026-05-06 08:46 49.83098 -2.17746 32338 ft 459 kts 198°
2026-05-06 08:47 49.80033 -2.19165 32618 ft 460 kts 198°
2026-05-06 08:47 49.76967 -2.20584 32905 ft 460 kts 197°
2026-05-06 08:47 49.73900 -2.22003 32982 ft 460 kts 197°
2026-05-06 08:48 49.67780 -2.24833 32976 ft 458 kts 197°
2026-05-06 08:48 49.61665 -2.27667 32974 ft 459 kts 197°
2026-05-06 08:49 49.55540 -2.30500 32977 ft 460 kts 197°
2026-05-06 08:49 49.49454 -2.33294 32975 ft 460 kts 197°
2026-05-06 08:50 49.43323 -2.36108 32969 ft 460 kts 197°
2026-05-06 08:50 49.37194 -2.38911 32966 ft 460 kts 197°
2026-05-06 08:51 49.31064 -2.41709 32965 ft 460 kts 197°
2026-05-06 08:51 49.24932 -2.44505 32965 ft 460 kts 197°
2026-05-06 08:52 49.18804 -2.47284 32969 ft 459 kts 197°
2026-05-06 08:52 49.12678 -2.50060 32970 ft 459 kts 197°
2026-05-06 08:53 49.06557 -2.52822 32971 ft 459 kts 197°
2026-05-06 08:53 49.00429 -2.55577 32978 ft 458 kts 197°
2026-05-06 08:54 48.94356 -2.58302 32984 ft 458 kts 197°
2026-05-06 08:54 48.88249 -2.61041 32984 ft 458 kts 197°
2026-05-06 08:55 48.82135 -2.63786 32967 ft 458 kts 197°
2026-05-06 08:55 48.76014 -2.66522 32959 ft 459 kts 197°
2026-05-06 08:56 48.69870 -2.69255 32954 ft 460 kts 197°
2026-05-06 08:56 48.63730 -2.71981 32958 ft 461 kts 197°
2026-05-06 08:57 48.57561 -2.74705 32966 ft 461 kts 197°
2026-05-06 08:57 48.51407 -2.77415 32970 ft 461 kts 197°
2026-05-06 08:58 48.45290 -2.80105 32974 ft 461 kts 197°
2026-05-06 08:58 48.39103 -2.82823 32975 ft 460 kts 197°
2026-05-06 08:59 48.32995 -2.85501 32978 ft 460 kts 197°
2026-05-06 08:59 48.26853 -2.88188 32983 ft 460 kts 197°
2026-05-06 09:00 48.20716 -2.90863 32975 ft 459 kts 197°
2026-05-06 09:00 48.14588 -2.93522 32968 ft 458 kts 197°
2026-05-06 09:01 48.08454 -2.96178 32969 ft 459 kts 197°
2026-05-06 09:01 48.02332 -2.98832 32961 ft 459 kts 197°
2026-05-06 09:02 47.96185 -3.01483 32956 ft 460 kts 197°
2026-05-06 09:02 47.90038 -3.04133 32959 ft 460 kts 197°
2026-05-06 09:03 47.83893 -3.06762 32961 ft 460 kts 197°
2026-05-06 09:03 47.77782 -3.09382 32968 ft 460 kts 197°
2026-05-06 09:04 47.71629 -3.12012 32968 ft 460 kts 197°
2026-05-06 09:04 47.65472 -3.14634 32968 ft 460 kts 196°
2026-05-06 09:05 47.59315 -3.17245 32966 ft 460 kts 196°
2026-05-06 09:05 47.53161 -3.19855 32964 ft 460 kts 196°
2026-05-06 09:06 47.48050 -3.22026 32958 ft 460 kts 196°
2026-05-06 09:06 47.41891 -3.24635 32960 ft 460 kts 196°
2026-05-06 09:07 47.35731 -3.27234 32965 ft 460 kts 196°
2026-05-06 09:07 47.29571 -3.29831 32959 ft 461 kts 196°
2026-05-06 09:08 47.22393 -3.32828 32958 ft 461 kts 196°
2026-05-06 09:08 47.17214 -3.34983 32959 ft 462 kts 196°
2026-05-06 09:09 47.11019 -3.37564 32961 ft 463 kts 196°
2026-05-06 09:09 47.04856 -3.40126 32969 ft 464 kts 197°
2026-05-06 09:10 46.98643 -3.42719 32969 ft 464 kts 196°
2026-05-06 09:10 46.92426 -3.45299 32974 ft 465 kts 196°
2026-05-06 09:11 46.86201 -3.47864 32973 ft 465 kts 196°
2026-05-06 09:11 46.79968 -3.50434 32973 ft 465 kts 196°
2026-05-06 09:12 46.73736 -3.53003 32975 ft 466 kts 196°
2026-05-06 09:12 46.67498 -3.55551 32977 ft 466 kts 196°
2026-05-06 09:13 46.61262 -3.58093 32976 ft 466 kts 196°
2026-05-06 09:13 46.55068 -3.60637 32980 ft 465 kts 196°
2026-05-06 09:14 46.48839 -3.63192 32972 ft 465 kts 196°
2026-05-06 09:14 46.42605 -3.65723 32978 ft 465 kts 196°
2026-05-06 09:15 46.36365 -3.68238 32975 ft 465 kts 196°
2026-05-06 09:15 46.30052 -3.70248 32977 ft 465 kts 186°
2026-05-06 09:16 46.23607 -3.71202 32982 ft 466 kts 186°
2026-05-06 09:16 46.17159 -3.72160 32983 ft 466 kts 186°
2026-05-06 09:17 46.10715 -3.73123 32983 ft 466 kts 186°
2026-05-06 09:17 46.04307 -3.74076 32981 ft 466 kts 186°
2026-05-06 09:18 45.97856 -3.75030 32978 ft 466 kts 186°
2026-05-06 09:18 45.91404 -3.75982 32977 ft 466 kts 186°
2026-05-06 09:19 45.84961 -3.76944 32979 ft 466 kts 186°
2026-05-06 09:19 45.78503 -3.77895 32983 ft 466 kts 186°
2026-05-06 09:20 45.72056 -3.78835 32986 ft 466 kts 186°
2026-05-06 09:20 45.65597 -3.79777 32983 ft 466 kts 186°
2026-05-06 09:21 45.59151 -3.80723 32988 ft 466 kts 186°
2026-05-06 09:21 45.52691 -3.81674 32990 ft 466 kts 186°
2026-05-06 09:22 45.46243 -3.82610 32986 ft 466 kts 186°
2026-05-06 09:22 45.39790 -3.83533 32989 ft 466 kts 186°
2026-05-06 09:23 45.33336 -3.84463 32992 ft 466 kts 186°
2026-05-06 09:23 45.26886 -3.85400 32996 ft 466 kts 186°
2026-05-06 09:24 45.20445 -3.86338 32989 ft 466 kts 186°
2026-05-06 09:24 45.14041 -3.87261 32991 ft 465 kts 186°
2026-05-06 09:25 45.07598 -3.88182 32999 ft 465 kts 186°
2026-05-06 09:25 45.01156 -3.89098 33001 ft 465 kts 186°
2026-05-06 09:26 44.94717 -3.90021 33006 ft 465 kts 186°
2026-05-06 09:26 44.88283 -3.90932 33009 ft 465 kts 186°
2026-05-06 09:27 44.81853 -3.91849 33013 ft 464 kts 186°
2026-05-06 09:27 44.75425 -3.92768 33012 ft 464 kts 186°
2026-05-06 09:28 44.69010 -3.93674 33010 ft 463 kts 186°
2026-05-06 09:28 44.62587 -3.94581 33008 ft 463 kts 186°
2026-05-06 09:29 44.56170 -3.95486 33007 ft 463 kts 186°
2026-05-06 09:29 44.49800 -3.96376 33007 ft 463 kts 186°
2026-05-06 09:30 44.43388 -3.97269 33017 ft 463 kts 186°
2026-05-06 09:30 44.36980 -3.98168 33018 ft 463 kts 186°
2026-05-06 09:31 44.30553 -3.98535 33017 ft 463 kts 176°
2026-05-06 09:31 44.24129 -3.97894 33017 ft 463 kts 176°
2026-05-06 09:32 44.17693 -3.97262 33020 ft 463 kts 176°
2026-05-06 09:32 44.11270 -3.96633 33014 ft 463 kts 177°
2026-05-06 09:33 44.04830 -3.95999 33013 ft 464 kts 177°
2026-05-06 09:33 43.98443 -3.95377 33016 ft 463 kts 177°
2026-05-06 09:34 43.92005 -3.94761 33001 ft 464 kts 177°
2026-05-06 09:34 43.85557 -3.94142 33002 ft 465 kts 177°
2026-05-06 09:35 43.79088 -3.93514 33012 ft 466 kts 177°
2026-05-06 09:35 43.72614 -3.92886 33009 ft 467 kts 177°
2026-05-06 09:36 43.66133 -3.92256 33012 ft 467 kts 177°
2026-05-06 09:36 43.59648 -3.91638 33021 ft 467 kts 178°
2026-05-06 09:37 43.53154 -3.91021 33033 ft 468 kts 178°
2026-05-06 09:37 43.46657 -3.90410 33050 ft 468 kts 179°
2026-05-06 09:38 43.40247 -3.90941 33061 ft 464 kts 188°
2026-05-06 09:38 43.33828 -3.91904 33040 ft 464 kts 188°
2026-05-06 09:39 43.27399 -3.92848 33034 ft 465 kts 188°
2026-05-06 09:39 43.20965 -3.93793 33038 ft 465 kts 188°
2026-05-06 09:40 43.14534 -3.94741 33010 ft 465 kts 188°
2026-05-06 09:40 43.04885 -3.96158 33021 ft 464 kts 188°
2026-05-06 09:41 42.98462 -3.97106 33024 ft 464 kts 188°
2026-05-06 09:41 42.92038 -3.98049 33013 ft 464 kts 189°
2026-05-06 09:42 42.85662 -3.98971 33020 ft 464 kts 189°
2026-05-06 09:42 42.79248 -3.99904 33022 ft 463 kts 189°
2026-05-06 09:43 42.72836 -4.00849 33028 ft 463 kts 189°
2026-05-06 09:43 42.66421 -4.01785 33025 ft 464 kts 188°
2026-05-06 09:44 42.60008 -4.02704 33025 ft 464 kts 189°
2026-05-06 09:44 42.53594 -4.03634 33006 ft 463 kts 189°
2026-05-06 09:45 42.47198 -4.04561 33026 ft 462 kts 189°
2026-05-06 09:45 42.40810 -4.05481 33040 ft 461 kts 189°
2026-05-06 09:46 42.34436 -4.06391 33041 ft 460 kts 189°
2026-05-06 09:46 42.28113 -4.07294 33040 ft 459 kts 190°
2026-05-06 09:47 42.21781 -4.08207 33046 ft 457 kts 190°
2026-05-06 09:47 42.15456 -4.09111 33034 ft 457 kts 190°
2026-05-06 09:48 42.09141 -4.10010 33032 ft 456 kts 191°
2026-05-06 09:48 42.02845 -4.10915 33039 ft 454 kts 190°
2026-05-06 09:49 41.96559 -4.11704 33037 ft 454 kts 189°
2026-05-06 09:49 41.90261 -4.12372 33020 ft 454 kts 189°
2026-05-06 09:50 41.83975 -4.13041 33030 ft 453 kts 189°
2026-05-06 09:50 41.77704 -4.13754 33029 ft 451 kts 189°
2026-05-06 09:51 41.71453 -4.14479 33030 ft 451 kts 189°
2026-05-06 09:51 41.65199 -4.15189 33014 ft 450 kts 189°
2026-05-06 09:52 41.59013 -4.15881 33015 ft 449 kts 189°
2026-05-06 09:52 41.52799 -4.16578 33015 ft 448 kts 189°
2026-05-06 09:53 41.46587 -4.17279 32899 ft 448 kts 189°
2026-05-06 09:53 41.43488 -4.17631 32632 ft 447 kts 189°
2026-05-06 09:53 41.40379 -4.17983 32351 ft 447 kts 189°
2026-05-06 09:54 41.37274 -4.18331 32104 ft 448 kts 189°
2026-05-06 09:54 41.34174 -4.18675 31850 ft 448 kts 189°
2026-05-06 09:54 41.31062 -4.19023 31414 ft 449 kts 189°
2026-05-06 09:54 41.27945 -4.19375 30908 ft 449 kts 189°
2026-05-06 09:55 41.24822 -4.19705 30398 ft 450 kts 188°
2026-05-06 09:55 41.21694 -4.19950 29884 ft 451 kts 187°
2026-05-06 09:55 41.18553 -4.20132 29200 ft 453 kts 187°
2026-05-06 09:55 41.15396 -4.20282 28511 ft 455 kts 186°
2026-05-06 09:56 41.12244 -4.20426 27830 ft 452 kts 186°
2026-05-06 09:56 41.09109 -4.20580 27166 ft 448 kts 187°
2026-05-06 09:56 41.06011 -4.20748 26522 ft 445 kts 187°
2026-05-06 09:56 41.02930 -4.20931 25867 ft 440 kts 187°
2026-05-06 09:57 40.99896 -4.21121 25243 ft 435 kts 187°
2026-05-06 09:57 40.96884 -4.21315 24638 ft 431 kts 187°
2026-05-06 09:57 40.93897 -4.21504 24047 ft 428 kts 187°
2026-05-06 09:57 40.90970 -4.21616 23449 ft 427 kts 181°
2026-05-06 09:58 40.88041 -4.20901 22755 ft 432 kts 165°
2026-05-06 09:58 40.85326 -4.19198 22085 ft 433 kts 154°
2026-05-06 09:58 40.82697 -4.17273 21427 ft 430 kts 154°
2026-05-06 09:58 40.80094 -4.15347 20793 ft 427 kts 153°
2026-05-06 09:59 40.77512 -4.13433 20164 ft 424 kts 153°
2026-05-06 09:59 40.74947 -4.11538 19543 ft 421 kts 153°
2026-05-06 09:59 40.72396 -4.09662 18938 ft 418 kts 153°
2026-05-06 09:59 40.69856 -4.07796 18343 ft 416 kts 152°
2026-05-06 10:00 40.67337 -4.05951 17671 ft 413 kts 152°
2026-05-06 10:00 40.64831 -4.04118 17006 ft 411 kts 152°
2026-05-06 10:00 40.62346 -4.02304 16440 ft 406 kts 152°
2026-05-06 10:00 40.59895 -4.00517 15962 ft 400 kts 151°
2026-05-06 10:01 40.57484 -3.98758 15541 ft 393 kts 151°
2026-05-06 10:01 40.55117 -3.97032 15166 ft 385 kts 151°
2026-05-06 10:01 40.52800 -3.95347 14795 ft 378 kts 151°
2026-05-06 10:01 40.50515 -3.93687 14428 ft 371 kts 151°
2026-05-06 10:02 40.48306 -3.92079 14092 ft 365 kts 150°
2026-05-06 10:02 40.46108 -3.90477 13798 ft 357 kts 150°
2026-05-06 10:02 40.43974 -3.88924 13472 ft 349 kts 150°
2026-05-06 10:02 40.41887 -3.87408 13066 ft 335 kts 150°
2026-05-06 10:03 40.39855 -3.85935 12674 ft 332 kts 151°
2026-05-06 10:03 40.37848 -3.84480 12288 ft 326 kts 151°
2026-05-06 10:03 40.35919 -3.83081 11903 ft 311 kts 151°
2026-05-06 10:03 40.34031 -3.81711 11531 ft 309 kts 151°
2026-05-06 10:04 40.32159 -3.80356 11202 ft 306 kts 151°
2026-05-06 10:04 40.30304 -3.79016 10876 ft 303 kts 151°
2026-05-06 10:04 40.28473 -3.77692 10554 ft 300 kts 152°
2026-05-06 10:04 40.26660 -3.76371 10240 ft 296 kts 149°
2026-05-06 10:05 40.25066 -3.74709 9919 ft 293 kts 134°
2026-05-06 10:05 40.24217 -3.73343 9670 ft 292 kts 124°
2026-05-06 10:05 40.23311 -3.70990 9325 ft 289 kts 109°
2026-05-06 10:05 40.22686 -3.68495 8981 ft 288 kts 108°
2026-05-06 10:06 40.22058 -3.66015 8640 ft 286 kts 109°
2026-05-06 10:06 40.21225 -3.62763 8205 ft 282 kts 109°
2026-05-06 10:06 40.20805 -3.61128 8005 ft 279 kts 108°
2026-05-06 10:06 40.20193 -3.58744 7692 ft 275 kts 109°
2026-05-06 10:07 40.19588 -3.56390 7388 ft 271 kts 109°
2026-05-06 10:07 40.18992 -3.54073 7079 ft 264 kts 109°
2026-05-06 10:07 40.18424 -3.51856 6786 ft 252 kts 109°
2026-05-06 10:07 40.17880 -3.49692 6448 ft 250 kts 105°
2026-05-06 10:08 40.17731 -3.47451 6182 ft 245 kts 84°
2026-05-06 10:08 40.18156 -3.45320 5874 ft 243 kts 64°
2026-05-06 10:08 40.19091 -3.43557 5657 ft 235 kts 44°
2026-05-06 10:08 40.20299 -3.42138 5526 ft 227 kts 40°
2026-05-06 10:09 40.21565 -3.40942 5293 ft 224 kts 28°
2026-05-06 10:09 40.22923 -3.39960 5058 ft 222 kts 28°
2026-05-06 10:09 40.24266 -3.39032 4801 ft 221 kts 22°
2026-05-06 10:09 40.25748 -3.38528 4575 ft 219 kts
2026-05-06 10:10 40.27248 -3.38578 4397 ft 213 kts 352°
2026-05-06 10:10 40.28713 -3.38845 4138 ft 211 kts 352°
2026-05-06 10:10 40.30130 -3.39243 4007 ft 209 kts 337°
2026-05-06 10:10 40.31355 -3.40256 4003 ft 209 kts 323°
2026-05-06 10:11 40.32490 -3.41405 3995 ft 202 kts 323°
2026-05-06 10:11 40.33562 -3.42491 4019 ft 185 kts 323°
2026-05-06 10:11 40.34538 -3.43477 3996 ft 169 kts 323°
2026-05-06 10:11 40.35438 -3.44386 3997 ft 158 kts 323°
2026-05-06 10:12 40.36296 -3.45252 4000 ft 155 kts 323°
2026-05-06 10:12 40.37144 -3.46109 4005 ft 153 kts 323°
2026-05-06 10:12 40.37987 -3.46961 3963 ft 154 kts 323°
2026-05-06 10:12 40.38834 -3.47817 3831 ft 153 kts 323°
2026-05-06 10:13 40.39675 -3.48669 3638 ft 153 kts 323°
2026-05-06 10:13 40.40513 -3.49516 3452 ft 151 kts 323°
2026-05-06 10:13 40.41346 -3.50359 3259 ft 150 kts 323°
2026-05-06 10:13 40.42153 -3.51177 3070 ft 144 kts 323°
2026-05-06 10:14 40.42947 -3.51981 2830 ft 144 kts 323°
2026-05-06 10:14 40.43736 -3.52781 2635 ft 143 kts 323°
2026-05-06 10:14 40.44518 -3.53573 2440 ft 142 kts 323°
2026-05-06 10:14 40.45294 -3.54359 2270 ft 140 kts 324°
2026-05-06 10:15 40.46068 -3.55142 2072 ft 140 kts 323°
2026-05-06 10:15 40.46823 -3.55903 1974 ft 126 kts 324°
2026-05-06 10:15 40.47389 -3.56484 1991 ft 79 kts 321°
2026-05-06 10:15 40.47685 -3.56793 1996 ft 37 kts 313°
2026-05-06 10:16 40.47793 -3.57024 1997 ft 17 kts 292°
2026-05-06 10:16 40.47802 -3.57064 1999 ft 0 kts 272°
2026-05-06 10:17 40.47802 -3.57071 1999 ft 2 kts 272°
2026-05-06 10:17 40.47795 -3.57102 2000 ft 5 kts 232°
2026-05-06 10:17 40.47784 -3.57151 2000 ft 7 kts 308°
2026-05-06 10:17 40.47834 -3.57205 2002 ft 11 kts 321°
2026-05-06 10:18 40.47903 -3.57276 2004 ft 14 kts 321°
2026-05-06 10:18 40.47992 -3.57366 2003 ft 19 kts 323°
2026-05-06 10:18 40.48116 -3.57486 2001 ft 25 kts 324°
2026-05-06 10:18 40.48233 -3.57605 1998 ft 22 kts 322°
2026-05-06 10:19 40.48357 -3.57733 1994 ft 13 kts 321°
2026-05-06 10:19 40.48382 -3.57802 1991 ft 5 kts 342°
2026-05-06 10:19 40.48474 -3.57837 1992 ft 18 kts 343°
2026-05-06 10:19 40.48517 -3.57949 1998 ft 14 kts 265°
2026-05-06 10:20 40.48512 -3.58083 2004 ft 15 kts 270°
2026-05-06 10:20 40.48511 -3.58225 2009 ft 16 kts 270°
2026-05-06 10:20 40.48511 -3.58379 2015 ft 18 kts 270°
2026-05-06 10:20 40.48511 -3.58545 2021 ft 19 kts 270°
2026-05-06 10:21 40.48511 -3.58719 2022 ft 20 kts 269°
2026-05-06 10:21 40.48534 -3.58871 2027 ft 14 kts 309°
2026-05-06 10:21 40.48591 -3.58944 2028 ft 3 kts 314°
2026-05-06 10:21 40.48598 -3.58954 2027 ft 0 kts 314°